time_stamp(utc),avg(mph),gust(mph),direction(deg),12m_air_temp(f),sonic_u(cm/s),sonic_v(cm/s),sonic_w(cm/s),pressure,2m_air_temp(f),pyranometer(W/m^2)
"2018-11-01 00:02:07+00",13.1,15.1,,58.9,-344,-484,9,1014.34,57.8,0
"2018-11-01 00:07:07+00",14.0,16.0,,58.9,-361,-515,8,1014.23,57.9,0
"2018-11-01 00:12:07+00",12.6,13.6,,58.9,-305,-476,0,1014.32,57.9,0
"2018-11-01 00:17:07+00",13.4,16.4,,58.9,-348,-496,-10,1014.36,57.9,0
"2018-11-01 00:22:07+00",13.4,17.4,,58.9,-391,-481,-2,1014.4,57.9,0
"2018-11-01 00:27:07+00",14.0,16.0,,59.2,-406,-485,3,1014.42,58,0
"2018-11-01 00:32:07+00",13.7,15.7,,59.1,-404,-482,3,1014.3,58,0
"2018-11-01 00:37:07+00",12.7,14.7,,59.1,-372,-443,-2,1014.35,58,0
"2018-11-01 00:42:07+00",11.9,13.9,,59,-368,-391,4,1014.4,58,0
"2018-11-01 00:47:07+00",11.5,13.5,,59,-356,-378,9,1014.41,57.9,0
"2018-11-01 00:52:07+00",11.4,13.4,,59.1,-327,-400,9,1014.34,58,0
"2018-11-01 00:57:07+00",11.5,13.5,,59.2,-332,-403,3,1014.35,58.1,0
"2018-11-01 01:02:07+00",11.1,15.1,,59.2,-318,-391,8,1014.31,58.1,0
"2018-11-01 01:07:07+00",12.4,16.4,,59.3,-384,-403,10,1014.31,58.2,0
"2018-11-01 01:12:07+00",13.6,16.6,,59.5,-405,-462,3,1014.23,58.4,0
"2018-11-01 01:17:07+00",13.6,15.6,,59.4,-422,-443,5,1014.2,58.5,0
"2018-11-01 01:22:07+00",14.0,16.0,,59.4,-434,-462,8,1014.22,58.5,0
"2018-11-01 01:27:07+00",15.1,19.1,,59.4,-456,-505,-11,1014.14,58.6,0
"2018-11-01 01:32:07+00",14.5,19.5,,59.5,-418,-497,-1,1014.12,58.6,0
"2018-11-01 01:37:07+00",12.3,14.3,,59.5,-351,-437,2,1014.07,58.6,0
"2018-11-01 01:42:07+00",13.4,16.4,,59.6,-395,-461,-1,1014.03,58.6,0
"2018-11-01 01:47:07+00",12.6,14.6,,59.8,-401,-382,18,1014.04,58.7,0
"2018-11-01 01:52:07+00",12.2,14.2,,59.7,-398,-360,15,1014.03,58.7,0
"2018-11-01 01:57:07+00",12.6,15.6,,59.9,-430,-357,19,1014.06,58.8,0
"2018-11-01 02:02:07+00",14.3,17.3,,59.8,-473,-404,13,1014.02,58.8,0
"2018-11-01 02:07:07+00",14.6,18.6,,59.8,-493,-406,18,1014.14,58.9,0
"2018-11-01 02:12:07+00",12.2,15.2,,59.6,-411,-346,20,1014.15,58.8,0
"2018-11-01 02:17:07+00",10.7,11.7,,59.4,-377,-281,25,1014.15,58.6,0
"2018-11-01 02:22:07+00",10.8,12.8,,59.2,-386,-282,15,1014.13,58.4,0
"2018-11-01 02:27:07+00",11.1,12.1,,59.2,-417,-270,31,1014.13,58.2,0
"2018-11-01 02:32:07+00",12.4,14.4,,59.2,-450,-312,8,1014,58.1,0
"2018-11-01 02:37:07+00",12.1,15.1,,59.2,-405,-328,14,1013.96,58.1,0
"2018-11-01 02:42:07+00",12.2,14.2,,59.1,-400,-349,9,1013.95,58.1,0
"2018-11-01 02:47:07+00",11.1,13.1,,59.1,-363,-330,22,1013.9,58,0
"2018-11-01 02:52:07+00",13.4,15.4,,59.3,-440,-393,17,1013.92,58.1,0
"2018-11-01 02:57:07+00",11.6,14.6,,59.2,-372,-354,20,1013.82,58.1,0
"2018-11-01 03:02:07+00",12.3,15.3,,59.2,-386,-395,0,1013.78,58.1,0
"2018-11-01 03:07:07+00",12.3,14.3,,59.2,-404,-373,16,1013.85,58.1,0
"2018-11-01 03:12:07+00",12.4,15.4,,59.1,-423,-342,12,1013.89,58,0
"2018-11-01 03:17:07+00",11.7,12.7,,58.9,-399,-314,10,1013.83,57.9,0
"2018-11-01 03:22:07+00",10.8,11.8,,58.7,-341,-342,12,1013.78,57.8,0
"2018-11-01 03:27:07+00",10.5,12.5,,58.6,-325,-350,10,1013.78,57.6,0
"2018-11-01 03:32:07+00",11.1,12.1,,58.4,-333,-373,5,1013.75,57.4,0
"2018-11-01 03:37:07+00",10.6,12.6,,58.3,-316,-364,8,1013.63,57.3,0
"2018-11-01 03:42:07+00",11.0,12.0,,58.1,-325,-380,13,1013.64,57.2,0
"2018-11-01 03:47:07+00",9.7,11.7,,58,-289,-337,18,1013.55,57,0
"2018-11-01 03:52:07+00",10.9,12.9,,57.9,-312,-382,1,1013.49,56.9,0
"2018-11-01 03:57:07+00",10.5,13.5,,57.8,-325,-333,-2,1013.47,56.8,0
"2018-11-01 04:02:07+00",10.3,12.3,,57.7,-325,-311,6,1013.5,56.7,0
"2018-11-01 04:07:07+00",10.8,12.8,,57.6,-352,-312,5,1013.54,56.5,0
"2018-11-01 04:12:07+00",10.4,13.4,,57.6,-330,-321,7,1013.52,56.5,0
"2018-11-01 04:17:07+00",9.7,11.7,,57.5,-327,-262,3,1013.54,56.4,0
"2018-11-01 04:22:07+00",9.6,11.6,,57.4,-336,-248,4,1013.52,56.3,0
"2018-11-01 04:27:07+00",10.1,12.1,,57.4,-336,-292,9,1013.52,56.2,0
"2018-11-01 04:32:07+00",9.6,10.6,,57.5,-315,-276,5,1013.51,56.2,0
"2018-11-01 04:37:07+00",9.5,12.5,,57.4,-333,-257,5,1013.45,56.1,0
"2018-11-01 04:42:07+00",9.9,11.9,,57.6,-323,-296,11,1013.38,56.1,0
"2018-11-01 04:47:07+00",10.4,12.4,,57.7,-331,-319,5,1013.28,56.2,0
"2018-11-01 04:52:07+00",10.2,11.2,,57.7,-332,-309,1,1013.24,56.3,0
"2018-11-01 04:57:07+00",9.9,10.9,,57.7,-315,-296,4,1013.21,56.2,0
"2018-11-01 05:02:07+00",9.9,10.9,,57.7,-317,-317,2,1013.14,56.2,0
"2018-11-01 05:07:07+00",9.4,10.4,,57.7,-298,-295,4,1013.06,56.2,0
"2018-11-01 05:12:07+00",9.5,10.5,,57.5,-305,-277,2,1013,56.1,0
"2018-11-01 05:17:07+00",9.9,11.9,,57.4,-319,-306,2,1012.9,55.9,0
"2018-11-01 05:22:07+00",9.9,11.9,,57.4,-314,-309,6,1012.91,55.9,0
"2018-11-01 05:27:07+00",10.4,11.4,,57.5,-331,-324,5,1012.73,56,0
"2018-11-01 05:32:07+00",10.6,11.6,,57.6,-345,-310,6,1012.76,56,0
"2018-11-01 05:37:07+00",10.8,11.8,,57.6,-364,-292,8,1012.79,56.1,0
"2018-11-01 05:42:07+00",10.9,12.9,,57.7,-377,-292,18,1012.75,56.1,0
"2018-11-01 05:47:07+00",10.9,12.9,,57.9,-366,-301,18,1012.64,56.2,0
"2018-11-01 05:52:07+00",12.2,13.2,,58,-405,-339,10,1012.61,56.3,0
"2018-11-01 05:57:07+00",12.2,14.2,,58.2,-386,-370,-6,1012.53,56.5,0
"2018-11-01 06:02:07+00",11.9,13.9,,58.2,-386,-346,7,1012.59,56.7,0
"2018-11-01 06:07:07+00",12.7,14.7,,58.3,-425,-351,4,1012.7,56.7,0
"2018-11-01 06:12:07+00",11.8,12.8,,58.3,-391,-325,11,1012.69,56.8,0
"2018-11-01 06:17:07+00",11.3,12.3,,58.2,-386,-295,9,1012.71,56.7,0
"2018-11-01 06:22:07+00",11.1,12.1,,58.3,-357,-331,-1,1012.68,56.7,0
"2018-11-01 06:27:07+00",11.1,12.1,,58.6,-345,-362,0,1012.63,56.9,0
"2018-11-01 06:32:07+00",11.1,12.1,,58.5,-321,-388,3,1012.53,57,0
"2018-11-01 06:37:07+00",11.1,12.1,,58.3,-306,-401,2,1012.35,57,0
"2018-11-01 06:42:07+00",11.5,12.5,,58.2,-363,-373,3,1012.65,56.9,0
"2018-11-01 06:47:07+00",11.7,13.7,,58.1,-347,-411,2,1012.52,56.8,0
"2018-11-01 06:52:07+00",12.5,14.5,,58.3,-346,-455,10,1012.33,56.9,0
"2018-11-01 06:57:07+00",13.8,15.8,,58.4,-379,-497,0,1012.34,57.1,0
"2018-11-01 07:02:07+00",15.4,17.4,,58.7,-439,-545,2,1012.27,57.3,0
"2018-11-01 07:07:07+00",14.6,16.6,,58.9,-434,-507,9,1012.24,57.5,0
"2018-11-01 07:12:07+00",15.2,17.2,,59.1,-462,-521,4,1012.26,57.8,0
"2018-11-01 07:17:07+00",15.4,17.4,,59.2,-491,-485,7,1012.25,58,0
"2018-11-01 07:22:07+00",14.0,16.0,,59.1,-441,-449,7,1012.16,58,0
"2018-11-01 07:27:07+00",13.1,15.1,,59.1,-416,-420,5,1012.16,58,0
"2018-11-01 07:32:07+00",13.1,15.1,,59,-421,-405,13,1012.12,57.9,0
"2018-11-01 07:37:07+00",12.3,14.3,,58.9,-397,-379,4,1012.12,57.8,0
"2018-11-01 07:42:07+00",12.0,14.0,,58.7,-395,-350,6,1012.08,57.7,0
"2018-11-01 07:47:07+00",11.8,13.8,,58.7,-385,-339,10,1012.16,57.6,0
"2018-11-01 07:52:07+00",11.0,13.0,,58.5,-388,-285,16,1012.17,57.5,0
"2018-11-01 07:57:07+00",11.5,13.5,,58.4,-430,-280,16,1012.14,57.4,0
"2018-11-01 08:02:07+00",10.8,11.8,,58.3,-426,-245,18,1012.16,57.3,0
"2018-11-01 08:07:07+00",10.9,12.9,,58.1,-412,-256,7,1012.16,57.1,0
"2018-11-01 08:12:07+00",9.4,10.4,,58,-364,-218,13,1012.15,56.9,0
"2018-11-01 08:17:07+00",9.0,11.0,,57.9,-375,-189,6,1012.26,56.8,0
"2018-11-01 08:22:07+00",8.0,9.0,,57.7,-339,-170,13,1012.14,56.6,0
"2018-11-01 08:27:07+00",7.5,8.5,,57.5,-311,-133,10,1012.14,56.4,0
"2018-11-01 08:32:07+00",8.2,10.2,,57.3,-346,-89,4,1012.18,56.2,0
"2018-11-01 08:37:07+00",6.8,7.8,,57.2,-281,-106,17,1012.08,56,0
"2018-11-01 08:42:07+00",6.5,7.5,,57.1,-269,-97,14,1012.14,55.8,0
"2018-11-01 08:47:07+00",6.5,7.5,,57,-275,-94,7,1012.17,55.6,0
"2018-11-01 08:52:07+00",7.1,8.1,,57,-303,-120,11,1012.15,55.4,0
"2018-11-01 08:57:07+00",7.5,8.5,,57.1,-307,-160,6,1012.03,55.2,0
"2018-11-01 09:02:07+00",8.1,9.1,,57.1,-318,-176,9,1012.08,55.1,0
"2018-11-01 09:07:07+00",8.5,9.5,,57.1,-297,-212,11,1012.03,54.9,0
"2018-11-01 09:12:07+00",9.1,10.1,,57.1,-296,-249,9,1011.97,54.9,0
"2018-11-01 09:17:07+00",10.0,11.0,,57.1,-317,-277,2,1011.95,54.8,0
"2018-11-01 09:22:07+00",9.8,10.8,,57.1,-322,-313,-1,1011.92,54.8,0
"2018-11-01 09:27:07+00",11.2,12.2,,57.1,-357,-318,2,1012.01,54.9,0
"2018-11-01 09:32:07+00",10.6,11.6,,57.2,-340,-309,1,1012.02,54.9,0
"2018-11-01 09:37:07+00",10.0,11.0,,57.1,-322,-309,0,1012.18,55,0
"2018-11-01 09:42:07+00",9.1,10.1,,56.9,-286,-292,1,1012.21,55.1,0
"2018-11-01 09:47:07+00",9.5,10.5,,56.9,-304,-296,0,1012.34,55.1,0
"2018-11-01 09:52:07+00",9.2,10.2,,56.9,-298,-280,5,1012.36,55.2,0
"2018-11-01 09:57:07+00",9.3,10.3,,57,-306,-268,6,1012.34,55.2,0
"2018-11-01 10:02:07+00",9.8,10.8,,56.9,-314,-286,2,1012.31,55.3,0
"2018-11-01 10:07:07+00",9.6,11.6,,56.9,-301,-304,-2,1012.22,55.4,0
"2018-11-01 10:12:07+00",9.8,10.8,,56.9,-289,-340,2,1012.18,55.4,0
"2018-11-01 10:17:07+00",10.1,12.1,,56.9,-292,-349,3,1012.17,55.4,0
"2018-11-01 10:22:07+00",9.8,10.8,,56.9,-295,-336,4,1012.18,55.5,0
"2018-11-01 10:27:07+00",8.6,9.6,,56.8,-249,-299,7,1012.24,55.4,0
"2018-11-01 10:32:07+00",8.7,9.7,,56.6,-257,-304,0,1012.31,55.2,0
"2018-11-01 10:37:07+00",9.7,10.7,,56.7,-279,-340,2,1012.31,55.1,0
"2018-11-01 10:42:07+00",9.7,10.7,,56.7,-306,-327,1,1012.41,55.1,0
"2018-11-01 10:47:07+00",10.1,12.1,,56.8,-312,-328,-4,1012.38,55.1,0
"2018-11-01 10:52:07+00",10.2,12.2,,57.1,-328,-304,-6,1012.46,55.3,0
"2018-11-01 10:57:07+00",9.2,10.2,,57.2,-286,-298,3,1012.32,55.4,0
"2018-11-01 11:02:07+00",9.4,10.4,,57.2,-299,-286,2,1012.26,55.5,0
"2018-11-01 11:07:07+00",9.4,10.4,,57.2,-319,-251,2,1012.34,55.6,0
"2018-11-01 11:12:07+00",9.9,10.9,,57.2,-338,-263,4,1012.34,55.6,0
"2018-11-01 11:17:07+00",10.1,12.1,,57,-351,-264,9,1012.36,55.6,0
"2018-11-01 11:22:07+00",10.8,11.8,,56.9,-386,-269,7,1012.28,55.6,0
"2018-11-01 11:27:07+00",10.2,12.2,,56.7,-352,-274,10,1012.31,55.6,0
"2018-11-01 11:32:07+00",9.8,10.8,,56.6,-318,-273,0,1012.13,55.5,0
"2018-11-01 11:37:07+00",9.5,10.5,,56.6,-308,-263,6,1012.07,55.4,0
"2018-11-01 11:42:07+00",9.8,11.8,,56.7,-325,-269,10,1012.15,55.4,0
"2018-11-01 11:47:07+00",9.5,10.5,,56.6,-306,-286,6,1012.2,55.4,0
"2018-11-01 11:52:07+00",9.0,10.0,,56.7,-290,-257,1,1012.21,55.5,0
"2018-11-01 11:57:07+00",8.8,11.8,,56.7,-289,-257,12,1012.12,55.6,0
"2018-11-01 12:02:07+00",9.3,11.3,,56.8,-290,-298,3,1012.1,55.7,6.9
"2018-11-01 12:07:07+00",10.1,12.1,,56.9,-327,-284,-3,1012.24,55.9,17.5
"2018-11-01 12:12:07+00",8.9,9.9,,57.1,-282,-274,8,1012.1,56.2,25.4
"2018-11-01 12:17:07+00",8.4,10.4,,57.2,-290,-228,13,1012.14,56.6,33.7
"2018-11-01 12:22:07+00",8.7,9.7,,57.2,-301,-227,4,1012.25,57.1,41.3
"2018-11-01 12:27:07+00",9.7,11.7,,57.3,-319,-277,1,1012.36,57.5,50.1
"2018-11-01 12:32:07+00",9.4,12.4,,57.4,-301,-280,20,1012.35,57.9,59.8
"2018-11-01 12:37:07+00",9.2,11.2,,57.6,-297,-269,8,1012.41,58.2,69.5
"2018-11-01 12:42:07+00",8.9,9.9,,57.9,-302,-253,14,1012.65,58.7,77.6
"2018-11-01 12:47:07+00",8.9,10.9,,58.1,-307,-238,11,1012.58,59.1,84.8
"2018-11-01 12:52:07+00",9.5,12.5,,58.2,-362,-210,2,1012.7,59.6,95
"2018-11-01 12:57:07+00",7.1,8.1,,58,-296,-138,15,1012.74,59.9,102.3
"2018-11-01 13:02:07+00",8.1,10.1,,57.9,-328,-162,24,1012.82,60.4,110.5
"2018-11-01 13:07:07+00",9.2,11.2,,58,-364,-198,13,1012.95,60.6,120.2
"2018-11-01 13:12:07+00",10.1,12.1,,58.1,-395,-229,9,1013.01,60.8,129.1
"2018-11-01 13:17:07+00",8.7,10.7,,58.3,-331,-207,31,1012.8,61,137.7
"2018-11-01 13:22:07+00",9.0,11.0,,58.6,-329,-230,15,1012.87,61.2,145.3
"2018-11-01 13:27:07+00",10.3,11.3,,58.8,-361,-269,-6,1012.83,61.4,155.4
"2018-11-01 13:32:07+00",9.3,11.3,,59,-318,-255,13,1012.8,61.6,163.1
"2018-11-01 13:37:07+00",10.7,12.7,,59.2,-352,-304,-14,1012.81,61.6,170.3
"2018-11-01 13:42:07+00",9.9,10.9,,59.4,-339,-263,13,1012.71,61.8,178.5
"2018-11-01 13:47:07+00",10.8,11.8,,59.5,-346,-322,0,1012.77,61.8,184.1
"2018-11-01 13:52:07+00",9.6,11.6,,59.8,-303,-294,11,1012.68,62.1,190.9
"2018-11-01 13:57:07+00",8.8,9.8,,59.9,-249,-301,5,1012.45,62.2,193.2
"2018-11-01 14:02:07+00",9.7,11.7,,60.3,-288,-329,9,1012.48,62.4,201.2
"2018-11-01 14:07:07+00",10.0,12.0,,60.7,-279,-356,-5,1012.42,62.9,209.3
"2018-11-01 14:12:07+00",8.5,10.5,,60.9,-222,-302,4,1012.4,63.1,208.7
"2018-11-01 14:17:07+00",10.6,12.6,,61,-305,-362,-9,1012.39,63.3,219.6
"2018-11-01 14:22:07+00",9.5,11.5,,61.3,-295,-298,-2,1012.33,63.6,223.7
"2018-11-01 14:27:07+00",9.2,11.2,,61.6,-296,-279,41,1012.24,63.9,227.3
"2018-11-01 14:32:07+00",9.2,11.2,,61.9,-262,-321,7,1012.23,64.3,232.9
"2018-11-01 14:37:07+00",10.5,11.5,,62.1,-291,-375,-1,1012.04,64.4,239
"2018-11-01 14:42:07+00",10.6,12.6,,62.5,-280,-377,8,1012.15,64.6,245
"2018-11-01 14:47:07+00",11.2,13.2,,62.9,-310,-400,5,1012.23,64.8,248.2
"2018-11-01 14:52:07+00",10.8,13.8,,63.1,-263,-401,-5,1012.26,64.9,252.1
"2018-11-01 14:57:07+00",11.7,13.7,,63.4,-222,-457,-17,1012.17,65.2,257.3
"2018-11-01 15:02:07+00",12.2,14.2,,63.5,-253,-473,-10,1012.11,65.3,252.5
"2018-11-01 15:07:07+00",12.8,14.8,,63.5,-247,-498,-6,1011.93,65.4,267.5
"2018-11-01 15:12:07+00",12.5,14.5,,63.7,-280,-471,-16,1011.82,65.5,271
"2018-11-01 15:17:07+00",15.0,18.0,,64,-452,-498,-13,1011.79,65.9,276.8
"2018-11-01 15:22:07+00",11.0,15.0,,64.4,-182,-444,16,1011.84,66.2,232.2
"2018-11-01 15:27:07+00",10.1,13.1,,64.3,-162,-410,9,1011.85,66.4,283.3
"2018-11-01 15:32:07+00",10.6,13.6,,64.1,-179,-426,-5,1011.82,66.2,284.5
"2018-11-01 15:37:07+00",12.2,14.2,,63.8,-185,-491,2,1011.71,66,289.6
"2018-11-01 15:42:07+00",11.9,13.9,,63.7,-237,-463,12,1011.75,65.9,290.9
"2018-11-01 15:47:07+00",13.7,15.7,,64,-257,-534,-9,1011.74,65.9,295.9
"2018-11-01 15:52:07+00",12.3,14.3,,64.3,-202,-491,-12,1011.61,66.2,300.8
"2018-11-01 15:57:07+00",14.7,16.7,,64.4,-218,-593,-13,1011.53,66.3,293.5
"2018-11-01 16:02:07+00",13.1,16.1,,64.9,-312,-511,-9,1011.47,66.7,304.3
"2018-11-01 16:07:07+00",14.4,17.4,,65,-326,-549,-22,1011.47,66.8,306.2
"2018-11-01 16:12:07+00",13.9,15.9,,65.1,-315,-538,14,1011.48,67,307.5
"2018-11-01 16:17:07+00",14.3,18.3,,65.2,-349,-543,17,1011.29,67,308.4
"2018-11-01 16:22:07+00",14.7,16.7,,65.1,-351,-547,-2,1011.32,67.1,309
"2018-11-01 16:27:07+00",16.7,18.7,,64.9,-358,-640,-16,1011.23,67,309.7
"2018-11-01 16:32:07+00",16.6,19.6,,65,-456,-604,4,1011.28,67,310.9
"2018-11-01 16:37:07+00",15.7,17.7,,65.2,-345,-598,-15,1011.2,67.2,309.7
"2018-11-01 16:42:07+00",11.0,13.0,,65.4,-259,-431,20,1011.05,67.2,311.8
"2018-11-01 16:47:07+00",14.2,17.2,,65.8,-254,-563,6,1011,67.7,313.3
"2018-11-01 16:52:07+00",13.0,15.0,,65.7,-283,-500,3,1010.95,67.9,311
"2018-11-01 16:57:07+00",14.3,16.3,,65.6,-295,-553,-2,1010.93,67.8,309.3
"2018-11-01 17:02:07+00",14.8,16.8,,65.5,-383,-553,4,1010.77,67.7,307.5
"2018-11-01 17:07:07+00",15.9,17.9,,65.7,-323,-617,-5,1010.68,67.7,305.2
"2018-11-01 17:12:07+00",14.9,16.9,,65.9,-321,-575,12,1010.74,67.8,307.1
"2018-11-01 17:17:07+00",13.9,15.9,,65.8,-324,-531,17,1010.71,67.9,307
"2018-11-01 17:22:07+00",17.6,19.6,,66.2,-415,-660,-16,1010.67,68.1,304.8
"2018-11-01 17:27:07+00",14.0,17.0,,66.1,-306,-537,6,1010.62,68,290.6
"2018-11-01 17:32:07+00",16.0,18.0,,66.3,-373,-602,-10,1010.59,68.1,265.5
"2018-11-01 17:37:07+00",14.7,16.7,,66.4,-387,-545,7,1010.52,68,277
"2018-11-01 17:42:07+00",17.1,19.1,,66.5,-463,-613,-5,1010.56,68.1,279.3
"2018-11-01 17:47:07+00",13.7,15.7,,66.8,-367,-496,11,1010.57,68.4,301.3
"2018-11-01 17:52:07+00",16.6,18.6,,66.9,-498,-570,-1,1010.49,68.8,310.9
"2018-11-01 17:57:07+00",13.6,16.6,,67.1,-408,-464,-1,1010.49,69.1,295.8
"2018-11-01 18:02:07+00",15.0,17.0,,67.2,-356,-567,-5,1010.55,69.2,272.6
"2018-11-01 18:07:07+00",15.7,18.7,,67.3,-414,-583,-3,1010.54,68.9,213.2
"2018-11-01 18:12:07+00",16.6,18.6,,67.1,-450,-597,-2,1010.55,68.6,185.6
"2018-11-01 18:17:07+00",15.3,18.3,,66.9,-331,-592,15,1010.54,68,117.6
"2018-11-01 18:22:07+00",15.0,19.0,,66.6,-315,-578,9,1010.54,67.4,129.9
"2018-11-01 18:27:07+00",15.8,18.8,,66.6,-336,-606,-6,1010.59,67.4,154.6
"2018-11-01 18:32:07+00",17.6,19.6,,66.5,-362,-673,-6,1010.56,67.3,138.2
"2018-11-01 18:37:07+00",15.4,18.4,,66.6,-343,-580,-5,1010.5,67.3,138.1
"2018-11-01 18:42:07+00",15.2,20.2,,66.4,-365,-580,15,1010.5,67,88.8
"2018-11-01 18:47:07+00",14.1,18.1,,66.3,-344,-537,16,1010.49,66.8,94.3
"2018-11-01 18:52:07+00",15.9,16.9,,66.2,-325,-607,-20,1010.48,66.7,86.9
"2018-11-01 18:57:07+00",13.9,17.9,,66.1,-284,-544,13,1010.53,66.6,79.9
"2018-11-01 19:02:07+00",14.9,16.9,,66.1,-256,-590,-2,1010.47,66.4,66.8
"2018-11-01 19:07:07+00",14.5,17.5,,65.8,-306,-560,3,1010.58,66.1,56.1
"2018-11-01 19:12:07+00",15.9,17.9,,65.6,-287,-621,-11,1010.54,65.9,52.4
"2018-11-01 19:17:07+00",15.0,18.0,,65.5,-276,-583,-7,1010.57,65.7,61.7
"2018-11-01 19:22:07+00",17.1,20.1,,65.5,-313,-673,-10,1010.7,65.7,62.8
"2018-11-01 19:27:07+00",15.3,17.3,,65.3,-249,-612,-10,1010.64,65.5,64.4
"2018-11-01 19:32:07+00",15.4,18.4,,65,-235,-625,-9,1010.73,65.4,59.5
"2018-11-01 19:37:07+00",16.2,19.2,,64.5,-248,-652,-16,1010.69,64.9,60.3
"2018-11-01 19:42:07+00",15.6,18.6,,64.4,-261,-624,4,1010.82,64.7,61.7
"2018-11-01 19:47:07+00",16.2,17.2,,64.4,-274,-642,-14,1010.82,64.7,75.2
"2018-11-01 19:52:07+00",15.6,18.6,,64.6,-263,-620,-14,1010.84,64.8,89.7
"2018-11-01 19:57:07+00",15.8,17.8,,64.5,-269,-632,-9,1010.79,64.8,69
"2018-11-01 20:02:07+00",14.1,16.1,,64.4,-277,-552,-11,1010.8,64.8,70.7
"2018-11-01 20:07:07+00",13.6,16.6,,64.4,-268,-535,16,1010.79,64.7,64.2
"2018-11-01 20:12:07+00",14.8,17.8,,64.4,-277,-583,-6,1010.75,64.6,52.6
"2018-11-01 20:17:07+00",14.3,16.3,,64.3,-285,-557,8,1010.83,64.5,51.7
"2018-11-01 20:22:07+00",13.7,16.7,,64.1,-304,-519,1,1010.82,64.3,50.3
"2018-11-01 20:27:07+00",13.7,16.7,,64.1,-335,-514,5,1010.76,64.3,60.4
"2018-11-01 20:32:07+00",14.4,15.4,,64.3,-292,-557,-4,1010.77,64.5,71.1
"2018-11-01 20:37:07+00",15.2,17.2,,64.5,-282,-595,-6,1010.71,64.6,50.1
"2018-11-01 20:42:07+00",14.5,17.5,,64.4,-235,-588,-13,1010.69,64.5,33.3
"2018-11-01 20:47:07+00",15.2,18.2,,64.1,-211,-616,-10,1010.67,64.3,39.8
"2018-11-01 20:52:07+00",14.6,18.6,,64,-211,-596,6,1010.58,64.1,44.2
"2018-11-01 20:57:07+00",17.0,20.0,,63.9,-286,-684,-8,1010.53,64,33.4
"2018-11-01 21:02:07+00",16.9,19.9,,63.7,-290,-672,-1,1010.59,63.7,12.9
"2018-11-01 21:07:07+00",17.8,22.8,,63.5,-330,-700,1,1010.56,63.5,6.9
"2018-11-01 21:12:07+00",17.6,19.6,,63.2,-319,-691,-4,1010.44,63.2,3
"2018-11-01 21:17:07+00",17.6,19.6,,63.1,-308,-698,-7,1010.32,63,0.9
"2018-11-01 21:22:07+00",17.8,19.8,,63.1,-320,-701,-11,1010.46,62.9,0
"2018-11-01 21:27:07+00",16.3,21.3,,63.1,-301,-645,3,1010.57,62.8,0
"2018-11-01 21:32:07+00",17.2,21.2,,63,-290,-685,-7,1010.51,62.7,0
"2018-11-01 21:37:07+00",18.4,21.4,,62.9,-320,-728,-6,1010.5,62.6,0
"2018-11-01 21:42:07+00",17.2,20.2,,62.9,-307,-676,-7,1010.46,62.5,0
"2018-11-01 21:47:07+00",17.0,20.0,,62.8,-328,-663,-7,1010.52,62.5,0
"2018-11-01 21:52:07+00",16.1,19.1,,62.8,-349,-630,0,1010.51,62.4,0
"2018-11-01 21:57:07+00",16.6,18.6,,62.8,-323,-651,0,1010.6,62.3,0
"2018-11-01 22:02:07+00",15.3,18.3,,62.8,-268,-611,-1,1010.59,62.3,0
"2018-11-01 22:07:07+00",13.5,15.5,,62.7,-228,-539,6,1010.63,62.2,0
"2018-11-01 22:12:07+00",13.2,16.2,,62.6,-235,-523,2,1010.68,62.1,0
"2018-11-01 22:17:07+00",15.5,17.5,,62.7,-295,-608,-2,1010.77,62.1,0
"2018-11-01 22:22:07+00",16.1,18.1,,62.6,-303,-626,-10,1010.81,62,0
"2018-11-01 22:27:07+00",17.0,20.0,,62.7,-316,-666,-4,1010.81,62.1,0
"2018-11-01 22:32:07+00",16.8,19.8,,62.6,-310,-658,-2,1010.83,62.1,0
"2018-11-01 22:37:07+00",15.5,18.5,,62.6,-311,-603,6,1010.78,62,0
"2018-11-01 22:42:07+00",15.5,17.5,,62.5,-318,-596,-2,1010.88,61.9,0
"2018-11-01 22:47:07+00",16.4,18.4,,62.7,-346,-629,-10,1010.78,62,0
"2018-11-01 22:52:07+00",16.8,18.8,,62.8,-345,-647,-14,1010.76,62.1,0
"2018-11-01 22:57:07+00",16.8,18.8,,62.8,-349,-647,-13,1010.7,62.1,0
"2018-11-01 23:02:07+00",17.0,20.0,,62.9,-378,-645,-8,1010.75,62.1,0
"2018-11-01 23:07:07+00",14.6,16.6,,63,-334,-560,2,1010.72,62.2,0
"2018-11-01 23:12:07+00",15.0,18.0,,63.1,-349,-575,16,1010.75,62.2,0
"2018-11-01 23:17:07+00",15.2,17.2,,63.1,-338,-583,-1,1010.77,62.3,0
"2018-11-01 23:22:07+00",15.9,17.9,,63.3,-375,-606,7,1010.89,62.4,0
"2018-11-01 23:27:07+00",15.7,18.7,,63.4,-398,-598,27,1010.9,62.5,0
"2018-11-01 23:32:07+00",16.4,19.4,,63.4,-432,-609,6,1010.88,62.5,0
"2018-11-01 23:37:07+00",16.9,19.9,,63.6,-412,-634,-8,1010.85,62.6,0
"2018-11-01 23:42:07+00",15.2,17.2,,63.4,-367,-574,-1,1010.91,62.6,0
"2018-11-01 23:47:07+00",15.3,17.3,,63.4,-337,-586,3,1010.98,62.6,0
"2018-11-01 23:52:07+00",14.6,17.6,,63.5,-308,-560,6,1010.88,62.6,0
"2018-11-01 23:57:07+00",15.9,17.9,,63.7,-309,-618,-16,1010.8,62.7,0
